User: anonymous   Login
Location: Norwich
(52.6280°N, 1.3030°E)
Time: 22:18:43
(UTC+01:00)
Language:

Meteor 1-22 Rocket - Orbit

View from above orbital plane
View from above orbital plane
View from above satellite
View from above satellite

Ground track
Ground track

The orbit data is extracted from the following two-line orbital elements,

1 08294U 75087B   15091.48372261  .00000130  00000-0  64446-4 0  9991
2 08294 081.2093 089.8707 0106148 159.5373 201.0100 14.08507484 31144
Epoch (UTC): 01 April 2015 11:36:33
Eccentricity: 0.0106148
inclination: 81.2093°
perigee height: 787 km
apogee height: 941 km
right ascension of ascending node: 89.8707°
argument of perigee: 159.5373°
revolutions per day: 14.08507484
mean anomaly at epoch: 201.0100°
orbit number at epoch: 3114

The dashed part of the orbit path shows where the satellite is in the earth's shadow,  

DLR